Jackson, MN

12:58 AM CDT on April 24, 2018 (GMT -0500)
Jackson Municipal

Weather History for KMJQ - January, 2013

Change the Weather History Date:

Wednesday, January 23, 2013

  Actual Average Record
Temperature  
Mean Temperature 6 °F -  
Max Temperature 17 °F 22 °F 39 °F (2004)
Min Temperature -4 °F 7 °F -16 °F (2011)
Degree Days  
Heating Degree Days 58    
Moisture  
Dew Point 3 °F    
Average Humidity 70    
Maximum Humidity 86    
Minimum Humidity 56    
Precipitation  
Precipitation 0.00 in - - ()
Sea Level Pressure  
Sea Level Pressure 30.25 in    
Wind  
Wind Speed 12 mph (NW)    
Max Wind Speed 32 mph    
Max Gust Speed 37 mph    
Visibility 10 miles    
Events Snow    
Averages and records for this station are not official NWS values.
T = Trace of Precipitation, MM = Missing Value Source: NWS Daily Summary

Daily Weather History Graph

Daily Weather History Graph

Search for Another Location

Airport or City:

Astronomy

Jan. 23, 2013 Rise Set
Actual Time 7:44 AM CST 5:19 PM CST
Civil Twilight 7:13 AM CST 5:50 PM CST
Nautical Twilight 6:38 AM CST 6:25 PM CST
Astronomical Twilight 6:04 AM CST 6:59 PM CST
Moon 2:29 PM CST (1/23) 4:58 AM CST (1/23)
Length of Visible Light 10h 36m
Length of Day
9h 34m
Waxing Gibbous, 89% of the Moon is Illuminated
Jan 23
Waxing Gibbous
Jan 26
Full
Feb 3
Last Quarter
Feb 10
New
Feb 17
First Quarter

Hourly Weather History & Observations

Time (CST) Temp. Windchill Dew Point Humidity Pressure Visibility Wind Dir Wind Speed Gust Speed Precip Events Conditions
12:13 AM 15.8 °F 6.1 °F 8.6 °F 73% 30.16 in 10.0 mi SSW 6.9 mph - N/A   Overcast
12:33 AM 15.8 °F 4.2 °F 8.6 °F 73% 30.15 in 10.0 mi SSW 9.2 mph - N/A   Overcast
12:53 AM 15.8 °F 4.2 °F 10.4 °F 79% 30.15 in 10.0 mi SSW 9.2 mph - N/A   Overcast
1:13 AM 15.8 °F 7.2 °F 10.4 °F 79% 30.14 in 10.0 mi SSW 5.8 mph - N/A   Overcast
1:33 AM 17.6 °F 9.3 °F 10.4 °F 73% 30.13 in 10.0 mi SSW 5.8 mph - N/A   Overcast
1:53 AM 17.6 °F 10.7 °F 10.4 °F 73% 30.13 in 10.0 mi SW 4.6 mph - N/A   Overcast
2:13 AM 17.6 °F 10.7 °F 10.4 °F 73% 30.13 in 10.0 mi SW 4.6 mph - N/A   Overcast
2:33 AM 17.6 °F 10.7 °F 10.4 °F 73% 30.13 in 10.0 mi SW 4.6 mph - N/A   Overcast
2:53 AM 17.6 °F 10.7 °F 10.4 °F 73% 30.12 in 10.0 mi SW 4.6 mph - N/A   Overcast
3:13 AM 17.6 °F 8.2 °F 10.4 °F 73% 30.12 in 10.0 mi SW 6.9 mph - N/A   Overcast
3:33 AM 17.6 °F 6.4 °F 10.4 °F 73% 30.11 in 10.0 mi SW 9.2 mph - N/A   Overcast
3:53 AM 17.6 °F 7.3 °F 10.4 °F 73% 30.11 in 10.0 mi SW 8.1 mph - N/A   Overcast
4:13 AM 17.6 °F 6.4 °F 10.4 °F 73% 30.10 in 10.0 mi SW 9.2 mph - N/A   Overcast
4:33 AM 17.6 °F 9.3 °F 10.4 °F 73% 30.10 in 10.0 mi WSW 5.8 mph - N/A   Overcast
4:53 AM 17.6 °F 6.4 °F 10.4 °F 73% 30.10 in 10.0 mi WSW 9.2 mph - N/A   Overcast
5:13 AM 17.6 °F 6.4 °F 10.4 °F 73% 30.10 in 10.0 mi West 9.2 mph - N/A   Overcast
5:33 AM 15.8 °F 5.1 °F 10.4 °F 79% 30.10 in 10.0 mi West 8.1 mph - N/A   Scattered Clouds
5:53 AM 14.0 °F 2.9 °F 10.4 °F 86% 30.10 in 10.0 mi West 8.1 mph - N/A   Scattered Clouds
6:12 AM 14.0 °F 5.1 °F 10.4 °F 86% 30.09 in 10.0 mi West 5.8 mph - N/A   Mostly Cloudy
6:33 AM 14.0 °F 2.0 °F 10.4 °F 86% 30.11 in 10.0 mi West 9.2 mph - N/A   Scattered Clouds
6:53 AM 14.0 °F 3.9 °F 8.6 °F 79% 30.11 in 10.0 mi West 6.9 mph - N/A   Clear
7:12 AM 14.0 °F 2.9 °F 10.4 °F 86% 30.11 in 10.0 mi West 8.1 mph - N/A   Scattered Clouds
7:33 AM 14.0 °F 3.9 °F 8.6 °F 79% 30.12 in 10.0 mi West 6.9 mph - N/A   Clear
7:53 AM 14.0 °F 5.1 °F 8.6 °F 79% 30.13 in 10.0 mi WNW 5.8 mph - N/A   Mostly Cloudy
8:12 AM 14.0 °F 2.0 °F 10.4 °F 86% 30.13 in 10.0 mi NW 9.2 mph - N/A   Overcast
8:33 AM 15.8 °F 3.4 °F 10.4 °F 79% 30.14 in 10.0 mi NW 10.4 mph - N/A   Overcast
8:53 AM 14.0 °F 0.5 °F 10.4 °F 86% 30.15 in 10.0 mi NW 11.5 mph - N/A   Scattered Clouds
9:13 AM 15.8 °F 0.9 °F 10.4 °F 79% 30.15 in 10.0 mi NW 15.0 mph - N/A   Clear
9:33 AM 17.6 °F 2.7 °F 10.4 °F 73% 30.17 in 10.0 mi NW 16.1 mph 21.9 mph N/A   Scattered Clouds
9:53 AM 17.6 °F 2.2 °F 12.2 °F 79% 30.19 in 7.0 mi NW 17.3 mph - N/A Snow Light Snow
10:13 AM 17.6 °F 1.7 °F 10.4 °F 73% 30.19 in 3.0 mi NNW 18.4 mph 21.9 mph N/A Snow Light Snow
10:33 AM 17.6 °F 2.7 °F 10.4 °F 73% 30.20 in 3.0 mi NW 16.1 mph - N/A Snow Light Snow
10:52 AM 17.6 °F 1.3 °F 12.2 °F 79% 30.20 in 2.5 mi NNW 19.6 mph - N/A Snow Light Snow
11:12 AM 17.6 °F 0.9 °F 10.4 °F 73% 30.22 in 5.0 mi NNW 20.7 mph 29.9 mph N/A Snow Light Snow
11:32 AM 17.6 °F 0.5 °F 10.4 °F 73% 30.22 in 7.0 mi NW 21.9 mph - N/A Snow Light Snow
11:53 AM 17.6 °F 3.7 °F 8.6 °F 68% 30.22 in 7.0 mi NNW 13.8 mph 20.7 mph N/A   Mostly Cloudy
12:13 PM 17.6 °F 1.3 °F 8.6 °F 68% 30.22 in 10.0 mi NW 19.6 mph 31.1 mph N/A   Mostly Cloudy
12:32 PM 17.6 °F 1.7 °F 8.6 °F 68% 30.22 in 10.0 mi NW 18.4 mph 28.8 mph N/A   Scattered Clouds
12:53 PM 17.6 °F -0.3 °F 6.8 °F 63% 30.22 in 10.0 mi NNW 24.2 mph 31.1 mph N/A   Clear
1:13 PM 17.6 °F 0.1 °F 6.8 °F 63% 30.22 in 10.0 mi NW 23.0 mph 28.8 mph N/A   Scattered Clouds
1:33 PM 17.6 °F -1.0 °F 5.0 °F 58% 30.23 in 10.0 mi NNW 26.5 mph 33.4 mph N/A   Clear
1:53 PM 15.8 °F -4.4 °F 3.2 °F 58% 30.23 in 10.0 mi NNW 29.9 mph 35.7 mph N/A   Clear
2:13 PM 14.0 °F -7.4 °F 3.2 °F 62% 30.25 in 10.0 mi NW 32.2 mph 35.7 mph N/A   Clear
2:33 PM 14.0 °F -4.7 °F 3.2 °F 62% 30.27 in 10.0 mi NW 23.0 mph 31.1 mph N/A   Clear
2:53 PM 12.2 °F -7.9 °F 1.4 °F 62% 30.29 in 10.0 mi NW 25.3 mph 33.4 mph N/A   Clear
3:13 PM 12.2 °F -8.6 °F 1.4 °F 62% 30.29 in 10.0 mi NW 27.6 mph 33.4 mph N/A   Clear
3:33 PM 10.4 °F -11.0 °F -0.4 °F 62% 30.30 in 10.0 mi NNW 27.6 mph 34.5 mph N/A   Scattered Clouds
3:53 PM 8.6 °F -13.8 °F -0.4 °F 67% 30.31 in 10.0 mi NNW 28.8 mph 36.8 mph N/A   Scattered Clouds
4:13 PM 8.6 °F -11.0 °F -2.2 °F 62% 30.33 in 10.0 mi NNW 20.7 mph 34.5 mph N/A   Mostly Cloudy
4:33 PM 6.8 °F -13.8 °F -4.0 °F 61% 30.35 in 10.0 mi NNW 21.9 mph 36.8 mph N/A   Scattered Clouds
4:53 PM 5.0 °F -14.7 °F -4.0 °F 66% 30.36 in 7.0 mi NNW 18.4 mph 29.9 mph N/A   Mostly Cloudy
5:13 PM 3.2 °F -19.0 °F -4.0 °F 72% 30.37 in 10.0 mi NNW 23.0 mph 32.2 mph N/A   Scattered Clouds
5:33 PM 3.2 °F -21.1 °F -5.8 °F 66% 30.38 in 10.0 mi NNW 28.8 mph 34.5 mph N/A   Scattered Clouds
5:53 PM 3.2 °F -19.5 °F -7.6 °F 61% 30.38 in 10.0 mi NNW 24.2 mph 36.8 mph N/A   Scattered Clouds
6:13 PM 3.2 °F -19.0 °F -9.4 °F 56% 30.39 in 10.0 mi NNW 23.0 mph 34.5 mph N/A   Clear
6:33 PM 1.4 °F -21.4 °F -9.4 °F 61% 30.40 in 10.0 mi NNW 23.0 mph 31.1 mph N/A   Clear
6:53 PM 1.4 °F -21.0 °F -9.4 °F 61% 30.41 in 10.0 mi NNW 21.9 mph 28.8 mph N/A   Clear
7:13 PM 1.4 °F -17.6 °F -9.4 °F 61% 30.42 in 10.0 mi NNW 15.0 mph 25.3 mph N/A   Clear
7:33 PM -0.4 °F -22.3 °F -11.2 °F 60% 30.42 in 10.0 mi NNW 19.6 mph 26.5 mph N/A   Clear
7:53 PM -0.4 °F -17.6 °F -11.2 °F 60% 30.44 in 10.0 mi North 11.5 mph 24.2 mph N/A   Clear
8:13 PM -0.4 °F -21.2 °F -9.4 °F 66% 30.44 in 10.0 mi NNW 17.3 mph 21.9 mph N/A   Clear
8:32 PM -0.4 °F -19.2 °F -11.2 °F 60% 30.45 in 10.0 mi North 13.8 mph 23.0 mph N/A   Clear
9:12 PM -2.2 °F -19.9 °F -13.0 °F 60% 30.47 in 10.0 mi North 11.5 mph 16.1 mph N/A   Clear
9:33 PM -2.2 °F -19.9 °F -13.0 °F 60% 30.47 in 10.0 mi North 11.5 mph 16.1 mph N/A   Clear
9:53 PM -4.0 °F -21.2 °F -13.0 °F 65% 30.48 in 10.0 mi North 10.4 mph - N/A   Clear
10:12 PM -4.0 °F -22.1 °F -13.0 °F 65% 30.48 in 10.0 mi North 11.5 mph - N/A   Clear
10:33 PM -4.0 °F -23.0 °F -13.0 °F 65% 30.49 in 10.0 mi North 12.7 mph 19.6 mph N/A   Clear
10:52 PM -4.0 °F -20.2 °F -13.0 °F 65% 30.50 in 10.0 mi North 9.2 mph 17.3 mph N/A   Clear
11:13 PM -4.0 °F -21.2 °F -13.0 °F 65% 30.51 in 10.0 mi North 10.4 mph 16.1 mph N/A   Clear
11:52 PM -4.0 °F -20.2 °F -13.0 °F 65% 30.52 in 10.0 mi North 9.2 mph - N/A   Clear